This is the latest recevied weather packets stored in our database for station/object K8JCL-13. If no packets are shown the sender has not sent any weather packets the latest 10 day(s).
| Time | Temp. | Humidity | Pressure | Rain* | Wind** | Luminosity | Snow |
|---|---|---|---|---|---|---|---|
| 1777351623 | 15.56° C | 99% | 1008.7 hPa | 6.6 mm | - | 0 W/m² | - |
| 1777351320 | 15.56° C | 99% | 1008.9 hPa | 4.83 mm | - | 0 W/m² | - |
| 1777351020 | 15.56° C | 99% | 1008.5 hPa | 3.05 mm | - | 0 W/m² | - |
| 1777350716 | 15.56° C | 99% | 1007.7 hPa | 4.83 mm | - | 0 W/m² | - |
| 1777350412 | 15.56° C | 99% | 1007.7 hPa | 6.1 mm | - | 0 W/m² | - |
| 1777350109 | 15.56° C | 99% | 1008 hPa | 7.11 mm | - | 0 W/m² | - |
| 1777349807 | 15.56° C | 99% | 1008.9 hPa | 7.11 mm | - | 0 W/m² | - |
| 1777349504 | 15.56° C | 99% | 1009.4 hPa | 4.83 mm | - | 0 W/m² | - |
| 1777349203 | 15.56° C | 99% | 1008.7 hPa | 3.56 mm | - | 0 W/m² | - |
| 1777348899 | 16.11° C | 99% | 1008.5 hPa | 4.83 mm | - | 0 W/m² | - |
| 1777348597 | 16.11° C | 99% | 1007.9 hPa | 3.05 mm | - | 0 W/m² | - |
| 1777348295 | 16.11° C | 98% | 1007.6 hPa | 3.05 mm | - | 0 W/m² | - |
| 1777347992 | 15.56° C | 99% | 1007.1 hPa | 4.83 mm | - | 0 W/m² | - |
| 1777347691 | 15.56° C | 99% | 1007.4 hPa | 6.1 mm | - | 0 W/m² | - |
| 1777347387 | 15.56° C | 99% | 1007.4 hPa | 6.1 mm | - | 0 W/m² | - |
| 1777347082 | 16.11° C | 99% | 1008.1 hPa | 6.1 mm | - | 0 W/m² | - |
| 1777346779 | 16.11° C | 99% | 1009.1 hPa | 4.83 mm | - | 0 W/m² | - |
| 1777346475 | 16.11° C | 99% | 1009 hPa | 6.6 mm | - | 0 W/m² | - |
| 1777346172 | 16.11° C | 99% | 1009.4 hPa | 8.89 mm | - | 0 W/m² | - |
| 1777345869 | 16.11° C | 99% | 1009.5 hPa | 6.1 mm | - | 0 W/m² | - |
| 1777345567 | 16.11° C | 99% | 1010.1 hPa | 3.05 mm | - | 0 W/m² | - |
| 1777345263 | 16.11° C | 99% | 1009.9 hPa | 3.05 mm | - | 0 W/m² | - |
| 1777344960 | 16.11° C | 99% | 1010.2 hPa | 1.78 mm | - | 0 W/m² | - |
| 1777344656 | 16.11° C | 99% | 1009.7 hPa | 0 mm | - | 0 W/m² | - |
| 1777344353 | 16.11° C | 99% | 1009.7 hPa | 1.27 mm | - | 0 W/m² | - |
* Rain latest hour (hover to see other rain measurements)
** Current wind speed in m/s (hover to see current wind gust speed)